sat.trackr.live / text

‹ back to catalog

STARLINK-36567

NORAD 67552 · 2026-014W

PAYLOAD ACTIVE UNKNOWN

§ Identity

Operator
Country
US
Launch date
2026-01-22
Launch site
AFWTR
Launch vehicle
Mass (kg)
RCS (m²)

Purposes: comms

External: N2YO · Heavens-Above · Gunter

§ Orbital elements

Epoch: 2026-05-25T03:23:20.169888Z

Period
93.91 min
Inclination
97.2861°
Eccentricity
0.0001516
Mean motion
15.33451948 rev/d
Perigee alt
464.5 km
Apogee alt
466.6 km
Semi-major
6,843.7 km
B*
4.2488e-4
RAAN
32.2429°
Arg perigee
93.5618°
Mean anomaly
266.5798°
Rev number
2,049

§ Raw data

STARLINK-365671 67552U 26014W   26145.14120567  .00013670  00000+0  42488-3 0  99972 67552  97.2861  32.2429 0001516  93.5618 266.5798 15.33451948 20498

JSON: /api/v1/satellites/67552 · /tle

For live sub-satellite position, see the globe view (requires WebGL).

§ Visibility from observer

Set your observer location to see the next 7 days of passes ≥ 10°. The values pass through the URL so the page stays shareable.

No JS? Fill the form by hand. The geolocation button needs JavaScript.